Wind_Speed
21 24 16 16 22 10 17 15 8 9 9 14 11 7 14 10 10 10 11 13 13 12 12 18 23 24 24 22 23 17 22 21 17 15 16 17 19 21 19 17 16 15 16 16
20 20 19 25 20 6 9 10 7 18 3 14 14 11 12 10 10 10 12 11 13 13 14 16 21 21 22 22 23 21 23 23 19 17 16 18 18 20 22 22 20 21 20 18
14 14 14 12 18 10 11 19 10 3 8 12 12 14 13 11 10 10 10 10 11 11 13 17 19 20 21 22 20 24 24 22 22 23 22 21 21 22 23 24 22 23 21 19
7 9 7 12 12 13 6 17 12 10 14 11 10 10 11 12 10 10 10 10 9 6 12 17 17 20 19 22 24 24 23 23 22 24 23 21 25 27 26 28 29 25 23 22
4 5 15 17 7 8 6 9 16 16 16 11 9 8 9 10 9 9 8 7 11 15 11 13 19 14 17 20 21 23 23 24 22 23 23 21 21 22 25 26 33 30 26 25
3 2 4 7 17 5 3 6 14 14 12 12 4 3 3 7 7 8 11 11 13 16 17 19 16 13 16 17 20 20 19 21 23 21 28 20 20 21 24 26 27 32 28 26
9 6 3 17 17 8 1 5 12 11 9 11 5 5 7 7 7 9 11 13 15 16 14 14 17 18 16 16 17 13 24 25 26 20 26 26 22 19 24 26 29 31 25 28
7 6 5 23 12 7 5 11 10 11 10 12 11 10 9 8 7 7 8 11 15 17 15 12 12 15 14 18 15 19 21 25 22 22 19 23 19 22 23 26 26 24 22 22
6 3 7 12 12 10 10 10 11 10 10 10 10 11 10 10 10 11 12 12 12 15 16 16 15 16 16 15 13 16 22 25 25 22 27 25 26 23 24 22 21 20 19 19
3 8 11 12 12 12 12 11 11 12 11 9 10 10 10 8 8 9 14 15 14 16 18 18 19 19 18 16 15 18 21 21 20 24 25 25 27 29 28 21 21 19 18 19
4 5 6 13 11 10 10 10 11 11 11 10 11 11 10 8 9 13 15 17 17 18 17 18 18 20 18 13 13 15 17 19 21 23 27 30 32 27 27 28 21 18 20 18
3 8 4 7 8 11 12 11 7 10 11 11 12 11 11 9 13 14 15 16 16 17 17 17 17 18 18 20 14 14 16 17 16 16 17 18 21 25 25 24 23 22 19 16
3 6 9 8 9 10 10 9 10 10 11 11 14 15 15 13 14 15 15 15 17 17 17 18 18 20 19 18 17 20 17 16 16 16 15 12 13 15 16 20 22 20 20 19
5 3 7 9 6 6 7 9 10 12 13 13 14 14 15 15 14 15 15 14 15 17 18 18 18 20 18 16 17 17 17 16 16 16 15 15 14 13 9 10 12 15 18 18
7 7 8 5 5 6 6 7 9 9 10 12 14 14 14 15 15 15 13 14 15 16 16 15 16 16 16 13 15 15 14 14 15 14 13 12 12 12 12 12 14 10 9 13
4 4 6 5 5 7 7 8 9 9 9 10 11 13 14 15 14 15 15 15 14 14 13 14 14 12 14 15 8 12 13 12 11 10 10 11 11 10 11 13 15 13 10 9
4 4 4 5 7 10 10 9 11 10 12 13 14 12 12 13 13 13 13 13 15 15 14 14 14 13 10 14 13 11 10 10 10 10 10 10 11 11 11 12 13 13 11 11
9 9 10 9 7 9 10 13 14 13 12 10 11 14 15 13 10 9 8 8 12 15 14 14 13 13 12 11 11 9 9 9 9 10 10 10 10 10 10 10 10 11 9 11
12 11 12 12 12 13 13 12 12 12 10 10 11 12 11 10 8 7 6 7 8 11 12 9 10 11 11 10 10 9 8 8 8 9 7 7 10 11 10 9 9 8 8 8
11 13 15 15 14 13 13 12 12 11 9 9 10 9 9 7 6 5 7 10 8 6 7 8 9 9 8 9 12 9 8 7 7 6 7 10 8 6 7 7 6 6 6 6
12 12 12 12 13 13 12 10 11 10 8 9 9 8 7 4 4 5 2 7 7 5 3 7 9 8 7 7 8 7 8 7 7 7 6 5 4 5 5 5 4 4 5 4
10 10 10 10 11 11 10 9 9 10 9 9 8 5 3 3 3 5 6 6 4 4 5 6 7 7 7 9 7 7 7 7 7 6 6 6 6 5 4 3 2 3 2 1
10 10 9 8 10 10 9 8 8 8 7 6 5 6 6 4 5 8 6 6 6 5 6 6 7 5 6 8 6 6 6 5 5 5 4 4 4 3 4 4 4 3 3 2
10 9 9 8 9 7 7 5 5 4 3 3 5 5 6 8 6 4 4 4 5 4 2 5 9 6 4 6 5 5 5 5 5 4 4 5 1 2 2 3 3 3 4 5
10 8 6 4 3 4 4 4 3 4 2 3 2 1 2 3 4 6 4 3 5 5 5 5 8 8 4 5 5 4 5 5 4 7 8 5 5 5 5 5 4 4 6 8
7 4 4 3 5 4 2 2 5 2 4 3 4 5 3 1 3 4 4 3 4 5 5 5 5 3 7 7 6 6 7 6 7 6 5 7 8 8 8 7 7 8 8 7
3 2 3 3 2 2 6 7 7 8 7 5 5 3 4 3 4 4 6 5 7 5 6 7 7 6 6 8 10 9 9 8 9 9 9 10 12 11 11 10 10 9 8 9
Wind_Direction
270 288 290 276 279 289 303 282 228 260 254 29 10 89 84 85 71 55 46 45 43 36 22 18 14 14 22 21 44 72 95 95 93 97 99 105 103 111 124 129 128 128 121 115
269 277 281 306 249 221 303 298 351 254 174 61 16 94 83 78 67 61 56 52 51 40 39 25 17 15 15 27 38 54 73 80 87 95 104 102 105 107 108 104 109 115 109 104
264 280 299 283 247 239 218 214 239 7 57 64 61 50 34 68 65 60 54 46 54 45 43 40 21 24 21 27 39 51 58 66 76 76 80 94 102 99 101 101 102 95 92 85
290 303 266 266 193 206 200 49 37 73 66 76 98 88 52 38 68 59 47 43 47 43 52 55 40 32 28 39 44 46 51 55 65 72 71 74 86 88 83 88 84 77 76 72
276 284 286 187 112 143 150 46 22 21 29 78 113 114 61 52 59 67 51 45 46 44 34 56 66 45 46 43 46 49 46 50 55 71 74 71 73 80 84 81 83 72 63 66
293 277 273 13 341 23 102 86 27 19 15 357 161 255 69 62 63 65 61 45 53 56 59 53 55 59 69 58 57 52 52 60 60 67 79 72 80 84 86 83 81 79 67 59
249 250 241 346 329 296 31 39 39 36 29 29 71 60 86 68 57 57 65 57 53 55 58 68 64 66 52 58 61 68 74 66 69 69 79 85 75 82 88 89 83 78 78 69
219 237 81 355 19 59 349 50 45 59 72 86 90 83 73 58 42 49 68 73 61 58 54 67 77 72 72 72 71 75 69 75 67 66 69 82 83 81 84 86 88 89 80 72
36 45 33 49 59 44 46 55 48 73 81 94 95 84 71 60 44 32 41 71 68 72 67 62 66 71 79 81 72 83 81 77 75 68 71 77 73 72 71 74 80 81 80 76
199 37 51 40 57 54 53 62 63 65 76 86 94 85 76 66 55 43 37 46 63 74 70 56 53 51 56 72 81 78 73 73 71 66 65 64 61 62 62 60 63 64 72 71
91 84 102 49 40 55 67 70 71 72 82 90 91 86 86 78 64 52 46 46 56 59 55 51 44 36 37 56 65 75 84 84 78 71 67 66 63 63 63 63 69 74 74 78
22 0 78 44 49 56 54 48 65 88 86 85 87 87 82 72 69 62 53 57 61 65 62 54 50 44 36 42 65 73 66 64 82 92 96 93 86 78 71 73 72 72 76 83
48 62 84 85 58 62 74 74 64 65 77 85 85 88 85 84 81 79 72 64 60 63 64 63 53 47 49 54 68 65 66 68 65 67 71 88 101 97 93 76 72 70 69 68
17 353 105 41 80 67 83 85 84 82 79 80 89 90 92 91 84 78 76 76 70 66 61 56 50 46 47 63 69 68 71 74 71 75 77 77 74 78 94 104 90 68 64 63
48 62 88 117 133 140 119 104 82 73 69 65 71 77 82 78 68 61 69 85 77 67 56 51 44 43 49 58 66 69 63 74 77 78 78 81 82 81 82 82 83 87 82 58
62 55 73 65 67 54 55 65 84 84 81 78 80 82 86 84 77 68 62 61 69 64 58 53 46 41 44 49 74 74 65 62 73 77 79 78 78 84 85 87 83 72 58 42
244 95 48 79 74 58 55 54 72 84 83 74 61 70 88 89 80 73 65 66 65 61 53 48 36 32 55 55 52 59 67 61 66 73 70 75 80 80 84 89 98 90 69 69
69 57 53 63 90 96 78 73 72 72 70 71 71 69 67 68 70 67 76 80 75 61 47 40 36 26 39 52 50 55 63 67 67 65 64 64 73 77 77 80 80 94 93 68
62 72 67 71 86 91 88 83 83 84 81 81 80 71 73 73 71 63 53 55 69 54 28 32 31 34 29 43 43 53 56 54 68 73 76 85 74 66 65 79 87 84 82 78
75 77 77 72 77 91 93 91 93 88 87 95 101 95 86 74 72 81 87 84 69 48 26 30 38 36 27 29 32 47 48 52 62 60 57 60 67 95 87 80 67 72 77 86
83 85 88 89 83 85 93 99 102 94 90 97 99 97 98 86 45 3 282 114 62 47 25 43 29 33 21 35 40 47 43 46 50 52 50 67 74 71 71 66 64 68 65 60
106 108 108 106 104 97 91 97 99 97 92 86 86 91 141 128 124 93 78 57 70 38 36 56 23 22 49 40 41 43 44 36 38 38 55 45 44 45 59 62 36 46 31 34
121 119 118 113 104 107 103 96 94 89 84 69 51 40 28 42 27 8 85 50 60 51 53 31 18 35 53 38 35 36 35 38 31 28 25 42 19 31 15 13 345 332 336 346
123 116 108 120 135 145 113 121 119 105 98 106 59 32 10 5 12 71 68 37 39 5 347 27 19 20 51 26 27 26 13 14 6 22 7 349 313 326 313 319 317 308 322 318
115 126 138 180 174 135 124 141 190 191 198 236 214 255 30 10 353 18 32 348 354 359 336 310 355 18 24 353 350 343 336 330 336 323 304 318 320 306 297 297 300 291 286 292
152 154 120 34 16 21 9 213 285 293 244 275 243 219 195 228 279 307 269 250 296 286 311 286 318 313 325 311 314 312 302 301 306 315 307 302 293 288 290 287 284 282 284 285
122 141 164 185 151 33 13 1 348 355 11 4 326 215 198 216 247 250 279 282 279 288 292 294 293 290 294 295 302 301 299 292 294 292 283 285 289 284 291 289 285 279 277 280
Height
721 704 704 708 712 696 694 695 687 680 678 679 679 678 690 703 710 717 721 719 718 719 719 716 712 709 704 702 696 696 696 698 704 706 709 712 714 716 719 722 725 728 731 734
717 708 702 699 686 693 698 699 692 688 672 691 691 684 698 708 715 722 724 726 725 727 724 724 723 719 715 711 707 705 702 705 708 710 711 714 718 720 721 723 727 729 733 736
718 704 701 694 673 675 678 685 673 677 691 693 706 716 718 720 726 731 735 735 730 734 732 730 730 727 724 721 718 712 711 713 715 716 719 719 721 724 726 727 731 734 736 739
725 715 718 673 657 658 667 681 694 687 692 703 720 733 736 736 736 740 743 740 738 740 738 735 736 735 734 728 725 722 720 720 722 722 725 727 727 728 732 733 734 740 743 744
726 719 705 664 660 662 666 711 702 696 697 708 723 729 743 748 748 748 748 748 745 743 745 742 738 743 740 736 734 732 730 729 730 729 730 735 735 736 737 740 737 744 751 750
729 734 700 698 684 668 667 704 715 711 720 722 717 718 746 753 754 753 752 752 748 748 748 746 744 746 744 744 742 741 739 737 738 741 734 742 743 745 744 745 749 747 755 758
729 729 705 716 698 671 681 727 727 731 738 742 742 753 758 758 759 758 756 755 753 750 751 753 754 748 750 748 748 751 742 741 743 750 745 742 749 755 749 751 752 754 767 768
711 704 706 724 700 710 738 736 736 743 747 752 757 760 762 762 763 761 759 760 758 756 757 758 758 758 756 754 760 751 750 748 751 754 756 750 752 752 756 753 759 765 769 770
731 734 742 743 745 748 744 745 746 748 753 757 760 764 766 767 768 766 763 763 764 762 763 763 764 762 763 765 760 761 759 760 760 765 750 758 761 759 757 762 766 769 772 774
734 748 750 751 751 754 754 754 755 757 760 764 766 769 771 772 772 772 770 769 769 767 767 768 767 766 766 768 770 769 766 767 772 769 764 763 765 761 764 768 771 773 776 777
748 752 754 758 759 759 761 762 764 766 767 769 770 771 774 777 776 777 777 776 775 775 776 776 777 775 775 774 773 772 772 771 770 770 766 769 772 774 777 779 780 782 783 786
754 764 763 768 768 766 767 767 768 769 772 774 775 777 779 781 782 783 784 783 783 782 784 784 783 782 781 779 778 777 776 775 775 777 781 783 785 785 787 788 789 789 791 792
770 771 770 772 773 771 772 775 775 776 777 778 780 782 783 785 788 788 789 790 789 789 791 790 790 789 788 786 786 783 782 782 783 785 785 786 787 788 790 794 794 795 796 795
773 772 771 774 775 777 777 776 777 778 779 781 783 785 787 790 792 793 794 796 796 796 796 796 795 793 794 793 791 790 789 789 790 790 790 790 790 792 793 795 798 799 799 799
776 775 775 776 775 776 775 776 779 782 786 788 789 790 792 794 796 798 799 800 800 800 801 802 801 799 797 798 795 794 793 793 794 794 794 795 795 796 797 799 800 801 802 803
777 777 777 776 776 776 777 779 783 788 792 794 795 796 798 800 802 803 803 804 804 805 806 805 804 802 799 797 797 798 798 797 796 797 798 798 798 799 800 801 803 804 806 805
777 779 779 779 782 785 788 789 791 794 797 799 801 801 802 804 806 807 808 808 807 807 807 805 805 803 801 799 798 798 799 799 800 801 801 802 802 803 804 804 805 807 808 808
784 786 787 785 787 791 796 799 801 803 805 807 807 806 807 808 809 810 810 810 809 808 808 807 806 805 803 802 802 803 803 803 803 804 804 804 804 804 805 806 807 808 809 810
790 792 792 793 794 797 801 804 806 808 809 810 810 811 812 812 813 813 812 811 811 811 812 810 810 809 807 806 804 805 805 805 805 805 805 805 806 807 808 809 809 810 811 812
796 798 799 801 802 803 806 809 810 812 813 813 814 814 815 815 815 814 814 814 815 815 815 813 811 811 810 809 808 808 807 807 807 807 807 807 808 809 810 810 811 812 813 813
802 804 805 806 807 809 811 812 813 814 815 815 815 816 816 816 815 814 813 813 816 815 815 814 813 812 812 811 810 810 810 809 809 810 810 810 811 811 812 813 814 814 814 814
806 808 809 809 811 812 814 814 815 815 816 816 816 816 816 815 815 815 815 816 816 816 816 815 815 814 813 812 812 812 812 811 811 811 811 812 812 812 813 813 814 814 814 814
808 809 811 812 813 815 816 816 816 817 817 817 817 817 816 816 816 815 815 817 817 817 816 816 816 815 814 814 813 813 813 813 813 813 812 812 813 813 813 813 813 814 814 814
809 811 813 814 814 814 815 817 817 818 818 818 818 819 818 817 816 816 816 817 817 817 816 816 815 815 814 814 814 814 813 813 813 812 812 812 812 813 813 813 813 813 813 813
811 813 813 813 812 812 814 815 816 816 817 817 818 818 818 818 819 818 818 817 817 817 816 815 815 815 814 814 814 813 813 813 812 812 812 811 811 811 811 811 811 811 811 811
810 810 811 812 812 812 812 813 813 813 813 813 815 815 816 817 818 817 817 817 817 816 816 815 814 814 814 813 812 812 812 811 811 810 810 810 810 809 809 809 809 808 808 808
810 811 811 811 812 813 814 814 814 814 814 814 814 814 814 815 815 816 816 816 815 815 815 814 813 812 812 812 811 810 810 809 809 808 808 808 807 807 806 806 805 805 805 805